Jackson, MS

5:04 AM CST on November 21, 2017 (GMT -0600)
Jackson-Evers International

Weather History for KJAN - October, 2011

Change the Weather History Date:

Wednesday, October 12, 2011

  Actual Average Record
Temperature  
Mean Temperature 71 °F 66 °F  
Max Temperature 82 °F 78 °F 93 °F (1928)
Min Temperature 60 °F 54 °F 35 °F (1932)
Degree Days  
Heating Degree Days 0 2  
Month to date heating degree days 17 18  
Since 1 July heating degree days 17 25  
Cooling Degree Days 6 4  
Month to date cooling degree days 40 58  
Year to date cooling degree days 2627 2184  
Growing Degree Days 20 (Base 50)    
Moisture  
Dew Point 63 °F    
Average Humidity 77    
Maximum Humidity 100    
Minimum Humidity 54    
Precipitation  
Precipitation 0.75 in 0.13 in 3.45 in (1970)
Month to date precipitation 0.75 1.44  
Year to date precipitation 39.09 41.75  
Sea Level Pressure  
Sea Level Pressure 29.82 in    
Wind  
Wind Speed 1 mph (SSW)    
Max Wind Speed 25 mph    
Max Gust Speed 43 mph    
Visibility 6 miles    
Events Fog , Rain , Thunderstorm    
T = Trace of Precipitation, MM = Missing Value Source: NWS Daily Summary

Daily Weather History Graph

Daily Weather History Graph

Search for Another Location

Airport or City:

Trip Planner

Search our weather history database for the weather conditions in past years. The results will help you decide how hot, cold, wet, or windy it might be!

Date:

Astronomy

Oct. 12, 2011 Rise Set
Actual Time 7:01 AM CDT 6:31 PM CDT
Civil Twilight 6:37 AM CDT 6:56 PM CDT
Nautical Twilight 6:08 AM CDT 7:24 PM CDT
Astronomical Twilight 5:40 AM CDT 7:52 PM CDT
Moon 6:40 PM CDT (10/12) 7:30 AM CDT (10/12)
Length of Visible Light 12h 19m
Length of Day
11h 29m
Full, 100% of the Moon is Illuminated
Oct 12
Full
Oct 19
Last Quarter
Oct 26
New
Nov 2
First Quarter
Nov 10
Full

Hourly Weather History & Observations

Time (CDT) Temp. Heat Index Dew Point Humidity Pressure Visibility Wind Dir Wind Speed Gust Speed Precip Events Conditions
12:54 AM 66.9 °F - 63.0 °F 87% 29.87 in 10.0 mi Calm Calm - N/A   Overcast
1:54 AM 66.9 °F - 64.0 °F 90% 29.87 in 10.0 mi Calm Calm - N/A   Overcast
2:54 AM 66.9 °F - 64.0 °F 90% 29.85 in 10.0 mi Calm Calm - N/A   Overcast
3:54 AM 64.0 °F - 62.1 °F 93% 29.84 in 10.0 mi SSE 3.5 mph - N/A   Mostly Cloudy
4:54 AM 63.0 °F - 62.1 °F 97% 29.84 in 6.0 mi Calm Calm - N/A   Scattered Clouds
5:54 AM 61.0 °F - 60.1 °F 97% 29.86 in 4.0 mi Calm Calm - N/A   Partly Cloudy
6:26 AM 60.8 °F - 60.8 °F 100% 29.86 in 6.0 mi Calm Calm - N/A   Scattered Clouds
6:54 AM 60.1 °F - 59.0 °F 96% 29.87 in 2.0 mi Calm Calm - N/A   Partly Cloudy
7:14 AM 60.8 °F - 60.8 °F 100% 29.88 in 0.8 mi Calm Calm - N/A   Mostly Cloudy
7:28 AM 60.8 °F - 60.8 °F 100% 29.87 in 0.2 mi Calm Calm - N/A Fog Fog
7:54 AM 62.1 °F - 62.1 °F 100% 29.86 in 0.2 mi Calm Calm - N/A Fog Fog
8:38 AM 64.4 °F - 62.6 °F 94% 29.88 in 0.5 mi Calm Calm - N/A   Mist
8:54 AM 64.9 °F - 64.0 °F 97% 29.88 in 0.5 mi Calm Calm - N/A   Overcast
9:03 AM 64.4 °F - 64.4 °F 100% 29.89 in 4.0 mi Calm Calm - N/A   Overcast
9:54 AM 69.1 °F - 63.0 °F 81% 29.87 in 10.0 mi Calm Calm - N/A   Overcast
10:54 AM 71.1 °F - 63.0 °F 75% 29.87 in 10.0 mi Calm Calm - N/A   Overcast
11:54 AM 73.0 °F - 63.0 °F 71% 29.86 in 10.0 mi Calm Calm - N/A   Overcast
12:54 PM 77.0 °F - 63.0 °F 62% 29.83 in 10.0 mi Calm Calm - N/A   Mostly Cloudy
1:02 PM 77.0 °F - 62.6 °F 61% 29.83 in 10.0 mi Calm Calm - N/A   Scattered Clouds
1:54 PM 78.8 °F - 62.6 °F 57% 29.80 in 10.0 mi SSW 4.6 mph - N/A   Scattered Clouds
2:54 PM 80.1 °F 81.5 °F 63.0 °F 56% 29.76 in 10.0 mi Variable 3.5 mph - N/A   Scattered Clouds
3:54 PM 80.1 °F 81.2 °F 62.1 °F 54% 29.73 in 10.0 mi Calm Calm - N/A   Partly Cloudy
4:54 PM 79.0 °F - 62.1 °F 56% 29.73 in 10.0 mi South 3.5 mph - N/A   Partly Cloudy
5:05 PM 78.8 °F - 62.6 °F 57% 29.73 in 10.0 mi Calm Calm - N/A Thunderstorm Thunderstorm
5:25 PM 69.8 °F - 64.4 °F 83% 29.79 in 1.8 mi WNW 21.9 mph 42.6 mph 0.00 in Rain , Thunderstorm Heavy Thunderstorms and Rain
5:34 PM 64.4 °F - 64.4 °F 100% 29.79 in 0.5 mi WNW 5.8 mph 26.5 mph 0.38 in Fog , Rain , Thunderstorm Heavy Thunderstorms and Rain
5:41 PM 64.4 °F - 64.4 °F 100% 29.78 in 0.8 mi Variable 4.6 mph - 0.61 in Rain , Thunderstorm Heavy Thunderstorms and Rain
5:47 PM 64.4 °F - 64.4 °F 100% 29.77 in 2.0 mi Calm Calm - 0.69 in Rain , Thunderstorm Thunderstorms and Rain
5:54 PM 66.0 °F - 64.0 °F 93% 29.76 in 4.0 mi Calm Calm - 0.72 in Rain , Thunderstorm Thunderstorms and Rain
6:17 PM 66.2 °F - 64.4 °F 94% 29.77 in 10.0 mi Calm Calm - 0.03 in   Mostly Cloudy
6:54 PM 66.0 °F - 64.0 °F 93% 29.78 in 10.0 mi South 4.6 mph - 0.03 in Rain Light Rain
7:54 PM 66.0 °F - 64.0 °F 93% 29.79 in 10.0 mi Calm Calm - 0.00 in   Overcast
8:54 PM 64.0 °F - 63.0 °F 96% 29.79 in 10.0 mi South 3.5 mph - N/A   Scattered Clouds
9:54 PM 63.0 °F - 62.1 °F 97% 29.80 in 6.0 mi Calm Calm - N/A   Clear
10:54 PM 63.0 °F - 62.1 °F 97% 29.80 in 6.0 mi Calm Calm - N/A   Clear
11:52 PM 60.8 °F - 60.8 °F 100% 29.80 in 1.5 mi Calm Calm - N/A   Clear
11:54 PM 61.0 °F - 60.1 °F 97% 29.79 in 1.0 mi Calm Calm - N/A   Clear